Tracking 19795 objects as of 17-Jul-2019
HD Live streaming from Space Station
objects crossing your sky now

COSMOS 595

Track COSMOS 595 now!
10-day predictions
COSMOS 595 is classified as:


NORAD ID: 6852
Int'l Code: 1973-069H
Perigee: 1,405.1 km
Apogee: 1,492.8 km
Inclination: 74.0 °
Period: 114.7 minutes
Semi major axis: 7819 km
RCS: 0.6846 m2 (medium)
Launch date: October 2, 1973
Source: Commonwealth of Independent States (former USSR) (CIS)
Launch site: PLESETSK MISSILE AND SPACE COMPLEX (PKMTR)
aabbcc
Your satellite tracking list
Your tracking list is empty




NASA's NSSDC Master Catalog

Two Line Element Set (TLE):
1  6852U 73069H   19198.41957538 -.00000029  00000-0 -79300-4 0  9992
2  6852  73.9988 181.1072 0056027 334.9712 179.3938 12.55442543 98604
Source of the keplerian elements: AFSPC